COSMOS 2251 DEB, 35671

Orbit data source: Space-Track

COSMOS 2251 DEB, 35671 is space debris in LEO originally from a launch on Wed, 16 Jun 1993 UTC launched from the Plesetsk Missile And Space Complex (PKMTR). The debris from Iridium 33, an American commercial communications satellite, has been tracked extensively since its accidental collision with the defunct Russian satellite Cosmos 2251 in 2009. This event, occurring at high speed in low Earth orbit (LEO), generated thousands of pieces of space debris, significantly increasing the risk of further collisions. The Iridium 33 debris cloud has impacted space traffic management and orbital debris mitigation strategies, making it a subject of ongoing study in space situational awareness.

Loading next visibility...
Identifier
35671, 1993-036APN
Orbit
LEO
Country
Flag of CISCIS
Related business
Manufacturer
Unknown
Mission
Spacecraft
Bus & Motor
Unknown
Mass
Unknown
Launch date (UTC)
1993-06-16 (32 years ago)
Launch vehicle
Unknown
Launch site
Plesetsk Missile And Space Complex (PKMTR)
Object type
Payload
Rocket body
Debris
Shape & HBR
Unknown shape, 0.1 m
Radar Cross Section
Small (<0.1 m²)

Expand to show TLE details & history
Last TLE update: 7 hours ago

TLE from 7 hours ago
0 COSMOS 2251 DEB
1 35671U 93036APN 25299.90270422  .00000857  00000-0  23477-3 0  9992
2 35671  74.0169 167.1251 0040411 350.1571  26.1918 14.48237084860851
Epoch: 2025-10-26T21:39Z
TLE epoch observation values (Epoch: 2025-10-26T21:39:53.644Z)
Latitude
15.88341°
Longitude
171.28901°
Altitude
707.6 km
Speed
7.517 km/s
True Right ascension
11h 27m 05s
True Declination
15° 47' 33"
Sunlit
Object was in daylight at epoch
Visualization orbit readout
Latitude
Unknown
Longitude
Unknown
Altitude
Unknown
Speed
Unknown
Apparent Right ascension
Unknown
Apparent Declination
Unknown
Sunlit
N/A
Visualization observer readout
Local Sidereal Time
23:39:29
Azimuth
Unknown
Elevation
Unknown
Doppler factor
Unknown
Orbital elements
Apogee altitude
757.745 km
Perigee altitude
700.304 km
Semi-major axis
7,107.161 km
Eccentricity
0.00404
Inclination
74.0169°
RAAN
167.1251°
Arg. of periapsis
350.1571°
True anomaly
26.39712°
Mean anomaly
26.1918°
Eccentric anomaly
26.29437°
Mean motion
3.62242 °/min
Orbital period
99.38 mins
BSTAR
0.00023477
Loading maneuver chart data...
Computing Atmospheric mass density...

Documentation

Showing up to 5 results
|